Yatton Keynell, United Kingdom

2:08 PM BST on April 22, 2019 (GMT +0100)
Yatton Keynell

Weather History for 03740 - June, 2003

Change the Weather History Date:

Saturday, June 7, 2003

  Actual Average Record
Temperature  
Mean Temperature 60 °F -  
Max Temperature 68 °F 66 °F - ()
Min Temperature 51 °F 50 °F - ()
Degree Days  
Heating Degree Days 4    
Growing Degree Days 10 (Base 50)    
Moisture  
Dew Point 53 °F    
Average Humidity 80    
Maximum Humidity 100    
Minimum Humidity 49    
Precipitation  
Precipitation 0.00 in 0.07 in - ()
Sea Level Pressure  
Sea Level Pressure 29.96 in    
Wind  
Wind Speed 7 mph ()    
Max Wind Speed 13 mph    
Max Gust Speed -    
Visibility 5.2 miles    
Events Rain    
T = Trace of Precipitation, MM = Missing Value Source: Averaged Metar Reports

Daily Weather History Graph

Daily Weather History Graph

Search for Another Location

Airport or City:

Astronomy

Jun. 07, 2003 Rise Set
Actual Time 4:52 AM BST 9:21 PM BST
Civil Twilight 4:06 AM BST 10:07 PM BST
Nautical Twilight 2:56 AM BST 11:18 PM BST
Astronomical Twilight 1:39 AM BST 12:34 AM BST
Moon 12:03 PM BST (6/7) 1:58 AM BST (6/7)
Length of Visible Light 18h 01m
Length of Day
16h 28m
Waxing Crescent, 46% of the Moon is Illuminated
Jun 7
Waxing Crescent
Jun 7
First Quarter
Jun 14
Full
Jun 21
Last Quarter
Jun 29
New

Hourly Weather History & Observations

Time (BST) Temp. Dew Point Humidity Pressure Visibility Wind Dir Wind Speed Gust Speed Precip Events Conditions
12:50 AM 57.2 °F 57.2 °F 100% 29.98 in 1.9 mi SSE 8.1 mph - N/A Rain Rain
1:50 AM 57.2 °F 57.2 °F 100% 29.98 in 1.6 mi South 8.1 mph - N/A Rain Rain
2:50 AM 57.2 °F 57.2 °F 100% 29.95 in 2.2 mi South 6.9 mph - N/A Rain Light Rain
3:50 AM 57.2 °F 57.2 °F 100% 29.95 in 1.9 mi SSW 6.9 mph - N/A Rain Light Rain
4:50 AM 57.2 °F 57.2 °F 100% 29.95 in - SSW 6.9 mph - N/A Rain Light Rain
5:50 AM 57.2 °F 57.2 °F 100% 29.95 in - South 5.8 mph - N/A   Light Drizzle
6:50 AM 57.2 °F 57.2 °F 100% 29.98 in - South 5.8 mph - N/A   Light Drizzle
7:50 AM 59.0 °F 57.2 °F 94% 29.98 in 6.2 mi SSW 6.9 mph - N/A   Mostly Cloudy
8:50 AM 59.0 °F 55.4 °F 88% 29.98 in 6.2 mi SSW 9.2 mph - N/A   Mostly Cloudy
9:50 AM 59.0 °F 55.4 °F 88% 29.98 in 6.2 mi WSW 6.9 mph - N/A   Mostly Cloudy
10:50 AM 60.8 °F 55.4 °F 82% 29.98 in 6.2 mi SW 9.2 mph - N/A   Mostly Cloudy
11:50 AM 64.4 °F 50.0 °F 59% 29.98 in 6.2 mi SSW 9.2 mph - N/A   Mostly Cloudy
12:50 PM 64.4 °F 50.0 °F 59% 29.98 in 6.2 mi SSW 11.5 mph - N/A   Mostly Cloudy
1:50 PM 66.2 °F 46.4 °F 49% 29.98 in 6.2 mi SSW 10.4 mph - N/A   Mostly Cloudy
2:50 PM 66.2 °F 50.0 °F 56% 29.98 in 6.2 mi SW 12.7 mph - N/A   Scattered Clouds
3:50 PM 68.0 °F 50.0 °F 52% 29.95 in 6.2 mi SW 12.7 mph - N/A   Scattered Clouds
4:50 PM 66.2 °F 51.8 °F 60% 29.95 in 6.2 mi SSW 9.2 mph - N/A   Mostly Cloudy
5:50 PM 64.4 °F 51.8 °F 64% 29.95 in - SSW 9.2 mph - N/A   Clear
6:50 PM 62.6 °F 51.8 °F 68% 29.95 in - SSW 8.1 mph - N/A   Clear
7:50 PM 59.0 °F 51.8 °F 77% 29.95 in - South 8.1 mph - N/A   Clear
8:50 PM 57.2 °F 50.0 °F 77% 29.95 in 6.2 mi SSW 8.1 mph - N/A Rain Light Rain
9:50 PM 55.4 °F 50.0 °F 82% 29.98 in 6.2 mi South 6.9 mph - N/A Rain Rain
10:50 PM 53.6 °F 48.2 °F 82% 29.95 in 6.2 mi SSW 6.9 mph - N/A Rain Rain
11:50 PM 51.8 °F 48.2 °F 88% 29.92 in 6.2 mi South 4.6 mph - N/A Rain Rain